When you browse on this site, cookies collect data to enhance your experience and personalize the content and advertising you see.
Visit our Privacy Policy to learn more. By continuing to use the site, you agree to this use of cookies and data.
  • In Lithuania
  • List of Countries
  • For 7 days
  • Water Temperature
  • Weather Map
  • Weather Widgets
  • user-avatar
    Login

    Hourly Weather Lubango

    Today, 22 January, Wednesday

    Time Temperature Precipitation Wind Pressure Humidity
    00:00 +18°C° 0.1 mm 1 mps 608 mmHg 88%
    01:00 +16°C° 0 mm 0 mps 608 mmHg 86%
    02:00 +16°C° 0 mm 0 mps 608 mmHg 86%
    03:00 +18°C° 0 mm 1 mps 607 mmHg 86%
    04:00 +18°C° 0 mm 1 mps 607 mmHg 86%
    05:00 +18°C° 0 mm 1 mps 608 mmHg 86%
    06:00 +18°C° 0 mm 1 mps 608 mmHg 85%
    07:00 +19°C° 0 mm 1 mps 609 mmHg 85%
    08:00 +21°C° 0.1 mm 1 mps 610 mmHg 78%
    09:00 +22°C° 0.1 mm 1 mps 610 mmHg 72%
    10:00 +24°C° 0.1 mm 2 mps 611 mmHg 65%
    11:00 +24°C° 0.7 mm 2 mps 610 mmHg 65%
    12:00 +25°C° 0.7 mm 2 mps 610 mmHg 64%
    13:00 +25°C° 0.7 mm 2 mps 609 mmHg 64%
    14:00 +24°C° 1.1 mm 2 mps 609 mmHg 67%
    15:00 +24°C° 1.1 mm 3 mps 608 mmHg 69%
    16:00 +22°C° 1.1 mm 3 mps 607 mmHg 72%
    17:00 +21°C° 0.5 mm 2 mps 607 mmHg 77%
    18:00 +19°C° 0.5 mm 2 mps 607 mmHg 82%
    19:00 +18°C° 0.5 mm 2 mps 607 mmHg 88%
    20:00 +19°C° 0 mm 1 mps 607 mmHg 88%
    21:00 +18°C° 0 mm 1 mps 608 mmHg 89%
    22:00 +18°C° 0 mm 1 mps 608 mmHg 90%
    23:00 +16°C° 0 mm 1 mps 608 mmHg 90%

    Tomorrow, 23 January, Thursday

    Time Temperature Precipitation Wind Pressure Humidity
    00:00 +16°C° 0 mm 1 mps 607 mmHg 91%
    01:00 +16°C° 0 mm 1 mps 607 mmHg 92%
    02:00 +15°C° 0 mm 1 mps 607 mmHg 89%
    03:00 +15°C° 0 mm 1 mps 607 mmHg 86%
    04:00 +14°C° 0 mm 0 mps 606 mmHg 84%
    05:00 +15°C° 0 mm 0 mps 607 mmHg 81%
    06:00 +15°C° 0 mm 0 mps 607 mmHg 79%
    07:00 +16°C° 0 mm 0 mps 608 mmHg 77%
    08:00 +20°C° 0 mm 1 mps 609 mmHg 70%
    09:00 +21°C° 0 mm 1 mps 610 mmHg 64%
    10:00 +23°C° 0 mm 1 mps 610 mmHg 57%
    11:00 +24°C° 0 mm 1 mps 610 mmHg 56%
    12:00 +25°C° 0 mm 1 mps 610 mmHg 56%
    13:00 +26°C° 0 mm 1 mps 610 mmHg 55%
    14:00 +25°C° 0.5 mm 2 mps 609 mmHg 59%
    15:00 +24°C° 0.5 mm 3 mps 608 mmHg 64%
    16:00 +22°C° 0.5 mm 3 mps 608 mmHg 68%
    17:00 +21°C° 0.2 mm 2 mps 607 mmHg 76%
    18:00 +19°C° 0.2 mm 2 mps 607 mmHg 84%
    19:00 +19°C° 0.2 mm 1 mps 607 mmHg 91%
    20:00 +18°C° 0.3 mm 1 mps 607 mmHg 92%
    21:00 +18°C° 0.3 mm 1 mps 607 mmHg 93%
    22:00 +16°C° 0.3 mm 1 mps 608 mmHg 93%
    23:00 +16°C° 0 mm 1 mps 607 mmHg 93%

    Day after tomorrow, 24 January, Friday

    Time Temperature Precipitation Wind Pressure Humidity
    00:00 +16°C° 0 mm 1 mps 607 mmHg 93%
    01:00 +16°C° 0 mm 1 mps 607 mmHg 93%
    02:00 +16°C° 0 mm 1 mps 607 mmHg 94%
    03:00 +15°C° 0 mm 1 mps 607 mmHg 94%
    04:00 +15°C° 0 mm 1 mps 607 mmHg 95%
    05:00 +16°C° 0 mm 1 mps 607 mmHg 92%
    06:00 +16°C° 0 mm 1 mps 608 mmHg 89%
    07:00 +15°C° 0 mm 0 mps 608 mmHg 85%
    08:00 +19°C° 0 mm 1 mps 609 mmHg 78%
    09:00 +21°C° 0 mm 1 mps 610 mmHg 70%
    10:00 +23°C° 0 mm 2 mps 610 mmHg 62%
    11:00 +23°C° 0.5 mm 2 mps 610 mmHg 62%
    12:00 +24°C° 0.5 mm 2 mps 610 mmHg 63%
    13:00 +24°C° 0.5 mm 1 mps 610 mmHg 63%
    14:00 +23°C° 1.1 mm 2 mps 609 mmHg 67%
    15:00 +23°C° 1.1 mm 2 mps 608 mmHg 72%
    16:00 +21°C° 1.1 mm 2 mps 608 mmHg 76%
    17:00 +20°C° 0.6 mm 2 mps 608 mmHg 81%
    18:00 +19°C° 0.6 mm 2 mps 608 mmHg 86%
    19:00 +18°C° 0.6 mm 1 mps 608 mmHg 91%
    20:00 +18°C° 0.7 mm 1 mps 608 mmHg 92%
    21:00 +18°C° 0.7 mm 1 mps 608 mmHg 93%
    22:00 +18°C° 0.7 mm 1 mps 609 mmHg 94%
    23:00 +18°C° 0.7 mm 1 mps 609 mmHg 94%

    25 January, Saturday

    Time Temperature Precipitation Wind Pressure Humidity
    00:00 +18°C° 0.7 mm 1 mps 608 mmHg 95%
    01:00 +16°C° 0.7 mm 1 mps 608 mmHg 95%
    02:00 +16°C° 0.3 mm 1 mps 608 mmHg 96%
    03:00 +16°C° 0.3 mm 1 mps 608 mmHg 96%
    04:00 +16°C° 0.3 mm 1 mps 607 mmHg 96%
    05:00 +16°C° 0.1 mm 1 mps 608 mmHg 96%
    06:00 +16°C° 0.1 mm 1 mps 608 mmHg 95%
    07:00 +16°C° 0.1 mm 1 mps 608 mmHg 95%
    08:00 +19°C° 0.3 mm 1 mps 609 mmHg 88%
    09:00 +20°C° 0.3 mm 1 mps 609 mmHg 82%
    10:00 +22°C° 0.3 mm 1 mps 610 mmHg 75%
    11:00 +22°C° 1.4 mm 1 mps 610 mmHg 73%
    12:00 +23°C° 1.4 mm 1 mps 609 mmHg 72%
    13:00 +23°C° 1.4 mm 1 mps 609 mmHg 70%
    14:00 +23°C° 2.8 mm 1 mps 608 mmHg 74%
    15:00 +22°C° 2.8 mm 1 mps 608 mmHg 78%
    16:00 +21°C° 2.8 mm 1 mps 607 mmHg 82%
    17:00 +20°C° 1.5 mm 1 mps 607 mmHg 85%
    18:00 +19°C° 1.5 mm 1 mps 607 mmHg 89%
    19:00 +19°C° 1.5 mm 1 mps 607 mmHg 93%
    20:00 +18°C° 0.3 mm 1 mps 608 mmHg 93%
    21:00 +18°C° 0.3 mm 1 mps 608 mmHg 94%
    22:00 +18°C° 0.3 mm 1 mps 608 mmHg 95%
    23:00 +16°C° 0.2 mm 1 mps 608 mmHg 95%

    26 January, Sunday

    Time Temperature Precipitation Wind Pressure Humidity
    00:00 +16°C° 0.2 mm 1 mps 608 mmHg 95%
    01:00 +16°C° 0.2 mm 1 mps 608 mmHg 95%
    02:00 +16°C° 0.7 mm 1 mps 608 mmHg 95%
    03:00 +15°C° 0.7 mm 0 mps 608 mmHg 95%
    04:00 +15°C° 0.7 mm 0 mps 608 mmHg 95%
    05:00 +16°C° 0.4 mm 1 mps 608 mmHg 94%
    06:00 +16°C° 0.4 mm 1 mps 608 mmHg 93%
    07:00 +16°C° 0.4 mm 1 mps 608 mmHg 93%
    08:00 +19°C° 0.2 mm 1 mps 609 mmHg 87%
    09:00 +20°C° 0.2 mm 1 mps 609 mmHg 81%
    10:00 +21°C° 0.2 mm 2 mps 610 mmHg 76%
    11:00 +22°C° 1.1 mm 1 mps 610 mmHg 75%
    12:00 +22°C° 1.1 mm 1 mps 609 mmHg 74%
    13:00 +23°C° 1.1 mm 1 mps 609 mmHg 73%
    14:00 +22°C° 1.6 mm 1 mps 609 mmHg 74%
    15:00 +22°C° 1.6 mm 1 mps 608 mmHg 75%
    16:00 +22°C° 1.6 mm 1 mps 608 mmHg 76%
    17:00 +21°C° 1.3 mm 1 mps 608 mmHg 81%
    18:00 +20°C° 1.3 mm 1 mps 608 mmHg 86%
    19:00 +18°C° 1.3 mm 1 mps 607 mmHg 91%
    20:00 +18°C° 0.4 mm 1 mps 608 mmHg 91%
    21:00 +18°C° 0.4 mm 1 mps 608 mmHg 91%
    22:00 +18°C° 0.4 mm 1 mps 609 mmHg 91%
    23:00 +18°C° 0.2 mm 1 mps 609 mmHg 92%

    27 January, Monday

    Time Temperature Precipitation Wind Pressure Humidity
    00:00 +18°C° 0.2 mm 1 mps 608 mmHg 93%
    01:00 +16°C° 0.2 mm 1 mps 608 mmHg 94%
    02:00 +15°C° 0.3 mm 0 mps 608 mmHg 93%
    03:00 +15°C° 0.3 mm 0 mps 608 mmHg 93%
    04:00 +15°C° 0.3 mm 0 mps 608 mmHg 92%
    05:00 +15°C° 0.2 mm 0 mps 608 mmHg 90%
    06:00 +16°C° 0.2 mm 0 mps 608 mmHg 88%
    07:00 +16°C° 0.2 mm 0 mps 608 mmHg 85%
    08:00 +20°C° 0 mm 1 mps 609 mmHg 76%
    09:00 +21°C° 0 mm 1 mps 610 mmHg 67%
    10:00 +23°C° 0 mm 2 mps 611 mmHg 58%
    11:00 +24°C° 0.2 mm 2 mps 610 mmHg 56%
    12:00 +25°C° 0.2 mm 2 mps 610 mmHg 54%
    13:00 +26°C° 0.2 mm 2 mps 610 mmHg 52%
    14:00 +25°C° 0.7 mm 2 mps 610 mmHg 55%
    15:00 +25°C° 0.7 mm 2 mps 609 mmHg 58%
    16:00 +24°C° 0.7 mm 2 mps 608 mmHg 61%
    17:00 +21°C° 0.6 mm 2 mps 608 mmHg 70%
    18:00 +21°C° 0.6 mm 1 mps 608 mmHg 78%
    19:00 +19°C° 0.6 mm 1 mps 607 mmHg 87%
    20:00 +19°C° 0.1 mm 1 mps 608 mmHg 89%
    21:00 +18°C° 0.1 mm 1 mps 608 mmHg 91%
    22:00 +18°C° 0.1 mm 1 mps 608 mmHg 93%
    23:00 +16°C° 0.1 mm 1 mps 608 mmHg 92%
    Show more